Time,TemperatureF,DewpointF,PressureIn,WindDirection,WindDirectionDegrees,WindSpeedMPH,WindSpeedGustMPH,Humidity,HourlyPrecipIn,Conditions,Clouds,dailyrainin,SolarRadiationWatts/m^2,SoftwareType,DateUTC
2013-01-12 00:00:00,48.5,43.3,30.11,NW,323,2.0,2.0,82,0.00,,,0.00,0,Wunderground v.1.15,2013-01-11 23:00:00,
2013-01-12 00:30:00,47.7,43.4,30.11,NNW,327,1.0,1.0,85,0.00,,,0.00,0,Wunderground v.1.15,2013-01-11 23:30:00,
2013-01-12 01:00:00,46.7,43.0,30.10,NNW,332,0.0,0.0,87,0.00,,,0.00,0,Wunderground v.1.15,2013-01-12 00:00:00,
2013-01-12 01:30:00,46.6,42.6,30.09,NNW,332,0.0,1.0,86,0.00,,,0.00,0,Wunderground v.1.15,2013-01-12 00:30:00,
2013-01-12 02:00:00,46.5,42.8,30.09,NNW,331,0.0,0.0,87,0.00,,,0.00,0,Wunderground v.1.15,2013-01-12 01:00:00,
2013-01-12 02:30:00,47.1,43.4,30.08,NW,306,1.0,1.0,87,0.00,,,0.00,0,Wunderground v.1.15,2013-01-12 01:30:00,
2013-01-12 03:00:00,46.0,42.3,30.08,North,350,0.0,0.0,87,0.00,,,0.00,0,Wunderground v.1.15,2013-01-12 02:00:00,
2013-01-12 03:30:00,47.8,39.6,30.07,NW,314,4.0,4.0,73,0.00,,,0.00,0,Wunderground v.1.15,2013-01-12 02:30:00,
2013-01-12 04:00:00,47.9,37.8,30.07,NNW,338,3.0,3.0,68,0.00,,,0.00,0,Wunderground v.1.15,2013-01-12 03:00:00,
2013-01-12 04:30:00,45.4,37.6,30.06,West,279,0.0,1.0,74,0.00,,,0.00,0,Wunderground v.1.15,2013-01-12 03:30:00,
2013-01-12 05:00:00,43.7,37.3,30.05,NNE,12,1.0,1.0,78,0.00,,,0.00,0,Wunderground v.1.15,2013-01-12 04:00:00,
2013-01-12 05:30:00,42.1,36.7,30.04,North,355,0.0,0.0,81,0.00,,,0.00,0,Wunderground v.1.15,2013-01-12 04:30:00,
2013-01-12 06:30:00,42.0,36.3,30.03,NNW,337,0.0,1.0,80,0.00,,,0.00,0,Wunderground v.1.15,2013-01-12 05:30:00,
2013-01-12 07:00:00,42.1,36.1,30.03,NNW,328,0.0,0.0,79,0.00,,,0.00,0,Wunderground v.1.15,2013-01-12 06:00:00,
2013-01-12 07:30:00,41.6,35.9,30.04,North,355,0.0,1.0,80,0.00,,,0.00,0,Wunderground v.1.15,2013-01-12 06:30:00,
2013-01-12 08:00:00,42.3,35.9,30.03,NE,39,1.0,1.0,78,0.00,,,0.00,0,Wunderground v.1.15,2013-01-12 07:00:00,
2013-01-12 08:30:00,43.5,36.1,30.04,NE,52,1.0,1.0,75,0.00,,,0.00,19,Wunderground v.1.15,2013-01-12 07:30:00,
2013-01-12 09:00:00,43.6,36.2,30.04,NW,319,1.0,1.0,75,0.00,,,0.00,47,Wunderground v.1.15,2013-01-12 08:00:00,
2013-01-12 09:30:00,45.5,37.7,30.05,North,355,0.0,0.0,74,0.00,,,0.00,137,Wunderground v.1.15,2013-01-12 08:30:00,
2013-01-12 10:00:00,48.3,38.6,30.05,NE,45,0.0,0.0,69,0.00,,,0.00,206,Wunderground v.1.15,2013-01-12 09:00:00,
2013-01-12 10:30:00,51.8,40.0,30.05,East,98,1.0,1.0,64,0.00,,,0.00,251,Wunderground v.1.15,2013-01-12 09:30:00,
2013-01-12 11:00:00,52.8,39.7,30.05,SE,136,2.0,2.0,61,0.00,,,0.00,246,Wunderground v.1.15,2013-01-12 10:00:00,
2013-01-12 11:30:00,53.4,41.1,30.05,ESE,123,2.0,3.0,63,0.00,,,0.00,396,Wunderground v.1.15,2013-01-12 10:30:00,
2013-01-12 12:00:00,53.4,39.4,30.04,East,91,3.0,3.0,59,0.00,,,0.00,359,Wunderground v.1.15,2013-01-12 11:00:00,
2013-01-12 12:30:00,55.1,39.2,30.02,North,10,3.0,5.0,55,0.00,,,0.00,436,Wunderground v.1.15,2013-01-12 11:30:00,
2013-01-12 13:00:00,55.6,37.7,30.01,WSW,238,4.0,5.0,51,0.00,,,0.00,329,Wunderground v.1.15,2013-01-12 12:00:00,
2013-01-12 13:30:00,55.1,37.8,30.00,West,265,6.0,6.0,52,0.00,,,0.00,257,Wunderground v.1.15,2013-01-12 12:30:00,
2013-01-12 14:00:00,56.0,38.6,29.98,SSW,204,3.0,4.0,52,0.00,,,0.00,279,Wunderground v.1.15,2013-01-12 13:00:00,
2013-01-12 14:30:00,57.8,38.8,29.97,West,259,7.0,7.0,49,0.00,,,0.00,422,Wunderground v.1.15,2013-01-12 13:30:00,
2013-01-12 15:00:00,58.4,39.3,29.97,WSW,252,6.0,10.0,49,0.00,,,0.00,334,Wunderground v.1.15,2013-01-12 14:00:00,
2013-01-12 15:30:00,58.3,40.2,29.98,SW,225,5.0,9.0,51,0.00,,,0.00,313,Wunderground v.1.15,2013-01-12 14:30:00,
2013-01-12 16:00:00,56.5,43.6,29.98,WSW,254,6.0,6.0,62,0.00,,,0.00,229,Wunderground v.1.15,2013-01-12 15:00:00,
2013-01-12 16:30:00,55.6,42.8,29.98,SSW,210,5.0,7.0,62,0.00,,,0.00,134,Wunderground v.1.15,2013-01-12 15:30:00,
2013-01-12 17:00:00,54.6,43.9,29.97,NW,313,4.0,4.0,67,0.00,,,0.00,53,Wunderground v.1.15,2013-01-12 16:00:00,
2013-01-12 17:30:00,53.2,42.9,29.97,SSW,199,2.0,2.0,68,0.00,,,0.00,11,Wunderground v.1.15,2013-01-12 16:30:00,
2013-01-12 18:00:00,51.5,41.3,29.97,West,281,3.0,3.0,68,0.00,,,0.00,0,Wunderground v.1.15,2013-01-12 17:00:00,
2013-01-12 18:30:00,50.2,40.8,29.97,WNW,302,3.0,3.0,70,0.00,,,0.00,0,Wunderground v.1.15,2013-01-12 17:30:00,
2013-01-12 19:00:00,49.9,40.9,29.96,WNW,302,2.0,2.0,71,0.00,,,0.00,0,Wunderground v.1.15,2013-01-12 18:00:00,
2013-01-12 19:30:00,50.1,41.8,29.97,NNW,327,3.0,5.0,73,0.00,,,0.00,0,Wunderground v.1.15,2013-01-12 18:30:00,
2013-01-12 20:00:00,49.8,42.2,29.95,NW,317,2.0,2.0,75,0.00,,,0.00,0,Wunderground v.1.15,2013-01-12 19:00:00,
2013-01-12 20:30:00,49.9,43.0,29.94,NW,315,2.0,2.0,77,0.00,,,0.00,0,Wunderground v.1.15,2013-01-12 19:30:00,
2013-01-12 21:30:00,49.2,42.0,29.93,NW,317,2.0,2.0,76,0.00,,,0.00,0,Wunderground v.1.15,2013-01-12 20:30:00,
2013-01-12 22:00:00,49.0,41.8,29.92,NW,311,0.0,1.0,76,0.00,,,0.00,0,Wunderground v.1.15,2013-01-12 21:00:00,
2013-01-12 22:30:00,48.9,42.3,29.91,WNW,284,1.0,1.0,78,0.00,,,0.00,0,Wunderground v.1.15,2013-01-12 21:30:00,
2013-01-12 23:00:00,48.7,42.5,29.90,NNW,344,0.0,2.0,79,0.00,,,0.00,0,Wunderground v.1.15,2013-01-12 22:00:00,
2013-01-12 23:30:00,49.0,42.8,29.89,NW,309,1.0,1.0,79,0.00,,,0.00,0,Wunderground v.1.15,2013-01-12 22:30:00,